Cloud_Cover
19 50 28 79 46 16 91 54 5 54 32 28 84 52 5 5 5 16 100 100 100 100 100 85 20 5 45 58 20 86 27 86 86 90 100 100 100 100 100 100 100 90 89 100 100 100 100
99 98 66 6 34 61 100 100 54 38 2 20 39 20 5 5 5 83 79 100 100 74 44 1 2 5 39 63 3 100 100 78 37 100 100 100 100 100 100 100 100 100 100 100 100 100 100
57 100 5 18 99 99 100 43 5 5 22 24 23 7 46 5 5 84 70 100 100 100 68 17 5 89 68 2 3 16 100 95 79 50 100 100 100 100 100 100 100 100 100 100 100 100 100
90 8 64 100 100 98 100 57 5 10 28 21 87 51 96 100 6 5 34 82 5 36 100 23 36 95 75 36 37 8 100 60 61 16 100 100 100 100 100 100 100 95 100 100 100 100 100
100 67 96 87 100 64 71 64 99 10 28 29 59 32 35 100 56 5 81 23 27 100 71 7 71 8 88 7 80 75 98 82 5 59 100 100 100 100 100 100 100 73 92 100 100 100 100
23 97 99 100 78 99 96 100 98 80 7 9 21 46 5 82 100 21 20 99 40 99 21 39 100 74 5 14 100 79 100 75 61 59 100 100 100 100 96 100 100 96 100 100 100 100 100
98 63 100 88 5 30 42 100 100 13 43 99 64 15 97 89 100 14 5 79 56 34 5 81 9 90 29 62 100 82 100 12 98 38 100 100 100 100 100 100 100 100 100 100 100 100 100
51 20 98 25 7 10 100 95 97 15 100 98 100 41 4 69 96 14 5 78 75 64 65 5 81 52 100 100 100 100 100 100 42 88 100 100 100 100 100 99 100 100 100 100 98 100 100
74 5 13 33 5 66 24 99 89 77 100 65 100 34 12 5 5 0 5 57 100 67 40 16 16 99 100 99 100 100 100 100 43 99 100 100 100 100 82 56 100 100 100 100 100 100 100
81 30 56 83 37 87 12 100 100 100 100 82 76 18 4 5 11 5 67 100 42 5 72 79 100 100 100 100 100 100 100 100 100 100 100 100 100 99 96 98 100 100 100 100 100 100 100
100 96 5 97 100 76 12 84 90 100 100 74 0 1 4 96 17 22 6 24 6 6 100 100 100 100 100 73 56 100 14 100 100 100 100 100 100 99 100 80 100 100 100 100 100 100 100
15 72 61 93 78 81 27 90 81 80 100 100 0 5 3 6 39 57 9 7 69 55 100 100 100 100 100 100 62 100 99 100 100 100 100 100 100 100 100 99 100 100 100 100 100 100 100
67 98 55 88 18 11 5 74 91 41 93 100 21 0 5 5 21 10 43 41 46 52 56 82 100 100 99 100 100 95 100 100 100 100 100 100 100 100 100 100 100 100 100 100 100 100 100
13 87 96 70 100 25 20 24 54 52 79 100 38 0 5 5 5 5 25 25 17 86 100 100 100 100 96 100 100 100 100 100 100 98 100 100 100 100 100 100 100 100 100 100 100 100 100
11 83 71 100 59 82 17 5 6 93 76 100 0 0 5 5 4 5 50 23 92 62 96 100 100 94 100 98 100 100 100 100 100 100 100 100 100 100 100 90 87 100 100 100 100 100 100
48 42 5 25 27 56 33 5 37 93 75 100 0 0 0 2 0 5 36 90 100 95 100 78 43 39 73 99 72 100 95 93 100 100 100 100 100 100 100 76 99 100 100 100 100 100 100
38 5 5 5 90 15 78 5 5 28 78 100 3 0 0 0 0 4 96 100 90 85 37 10 59 15 62 88 95 94 64 100 100 100 100 100 100 100 100 100 82 24 36 58 100 100 100
32 66 24 0 25 9 10 5 5 10 95 58 18 29 0 0 19 29 58 62 79 20 5 5 5 5 82 96 10 5 12 10 85 100 100 100 100 100 100 100 51 10 64 88 99 100 100
91 5 1 3 21 83 6 26 5 82 54 100 94 3 3 0 60 98 87 58 16 5 0 5 5 5 59 7 7 9 5 6 26 94 100 100 100 100 97 95 100 100 100 100 100 100 100
33 14 5 5 5 100 2 5 5 17 74 74 48 47 4 2 25 18 3 25 5 5 0 5 5 28 29 70 42 58 66 47 78 88 96 100 100 96 100 100 100 100 100 100 100 100 100
32 100 13 18 5 25 5 5 5 5 99 27 94 92 96 36 10 5 5 5 5 5 5 2 5 5 5 42 45 8 38 82 73 100 100 100 100 100 100 100 100 100 100 100 100 69 57
29 100 100 100 5 8 8 5 5 5 78 99 99 100 100 100 7 5 40 5 5 5 5 5 5 5 5 5 5 6 5 76 44 66 100 100 100 100 100 100 100 100 100 100 100 100 100
100 100 100 100 15 5 7 5 5 5 79 95 39 98 100 98 8 17 75 5 5 5 5 5 5 5 5 5 5 5 17 61 99 100 92 100 100 100 99 100 100 100 100 100 100 100 100
100 100 36 27 5 5 5 5 81 20 87 98 79 100 100 100 100 49 28 5 5 5 27 5 6 5 5 5 5 5 15 5 46 91 100 100 100 100 100 100 100 100 100 100 100 100 95
7 16 97 6 5 6 5 94 13 5 97 99 98 97 100 100 100 100 96 40 5 22 5 80 27 33 29 70 43 62 88 69 63 79 76 100 55 35 81 64 100 100 100 100 100 100 90
6 12 100 100 5 16 79 5 97 100 35 89 100 87 100 100 97 100 100 100 96 18 7 55 99 92 94 100 91 94 100 75 94 93 100 100 100 92 70 86 68 48 93 65 96 89 83
99 100 98 100 5 84 28 5 68 100 88 56 91 89 100 100 100 100 100 100 100 87 90 5 8 95 100 99 99 91 84 78 94 100 80 96 98 100 99 98 95 91 98 100 100 100 79
100 95 97 100 8 72 12 82 78 97 94 100 74 86 100 100 100 100 100 100 100 71 58 5 5 7 70 95 97 99 94 79 95 97 100 100 100 100 100 92 94 59 52 80 100 99 100
10 92 67 59 5 5 5 50 84 91 28 100 91 100 100 67 66 47 100 100 100 100 90 5 5 5 37 14 70 100 100 98 73 95 90 100 100 100 100 94 85 53 85 86 100 95 99